Back to catalog

DELTA 2 R/B(2)

AliveGTO
NORAD 23770·ROCKET BODY·🇺🇸 United States

Launched Jan 14, 1996 from Cape Canaveral Space Force Station

Loading…

TLE

FreshSource: Space-Track

Epoch: Sep 14, 2026, 22:09 UTC

1 23770U 96003C   26257.92356075 -.00000173  00000-0  00000-0 0  9998
2 23770  21.0038  99.3494 6882130  38.2801  69.6243  2.19761850246329

Track DELTA 2 R/B(2) in real time with AllMySat

Download on the App Store